User: anonymous
Location: Meetinghouse Hill
(42.7686°N, 71.7752°W)
Time: 04:46:27
(UTC-04:00)
Language:

Iridium 34 - Orbit

View from above orbital plane
View from above orbital plane
View from above satellite
View from above satellite

Ground track
Ground track

The orbit data is extracted from the following two-line orbital elements,

1 24969U 97056E   14231.48500059  .00000009  00000-0 -38859-5 0  9032
2 24969 086.3962 030.4507 0002124 109.4168 250.7258 14.34216360884518
Epoch (UTC): 19 August 2014 11:38:24
Eccentricity: 0.0002124
inclination: 86.3962°
perigee height: 776 km
apogee height: 779 km
right ascension of ascending node: 30.4507°
argument of perigee: 109.4168°
revolutions per day: 14.34216360
mean anomaly at epoch: 250.7258°
orbit number at epoch: 88451

The dashed part of the orbit path shows where the satellite is in the earth's shadow,  

DLR